Regional Weather Roundup
Issued by NWS

Home | Current Version | Previous Version | Text Only | Print | Product List | Glossary On
Versions: 1 2 3 4 5 6 7 8 9 10 11 12 13 14 15 16 17 18 19 20 21 22 23 24 25 26 27 28 29 30 31 32 33 34 35 36 37 38 39 40 41 42 43 44 45 46 47 48 49 50
272
ASUS43 KLSX 201910
RWRMO

WEATHER SUMMARY FOR MISSOURI
NATIONAL WEATHER SERVICE SPRINGFIELD MO
100 PM CST FRI JAN 20 2017

NOTE: "FAIR" INDICATES FEW OR NO CLOUDS BELOW 12,000 FEET WITH NO
       SIGNIFICANT WEATHER AND/OR OBSTRUCTIONS TO VISIBILITY.
       CURRENT SKY AND/OR WEATHER CONDITIONS ARE NOT AVAILABLE FOR
       CHILLICOTHE AND FARMINGTON.

MOZ001>031-035>038-043-044-053-054-202000-
...NORTHERN AND WESTERN MISSOURI...

CITY           SKY/WX    TMP DP  RH WIND       PRES   REMARKS
KANSAS CTY INT FOG       48  46  93 SE9       29.48F VSB 1/2
KANSAS C DTWN  CLOUDY    51  49  92 E5        29.48F
LEE`S SUMMIT   CLOUDY    51  49  92 SE7       29.48F
ST JOSEPH      LGT RAIN  49  48  97 CALM      29.48F FOG
CHILLICOTHE      N/A     46  46 100 E5        29.54F
KIRKSVILLE     CLOUDY    47  45  93 SE5       29.55F

$$
MOZ066>068-077>081-088>096-101>105-202000-
...SOUTHWEST MISSOURI...

CITY           SKY/WX    TMP DP  RH WIND       PRES   REMARKS
SPRINGFIELD    MOSUNNY   60  47  61 S17G23    29.49F
JOPLIN         SUNNY     64  44  48 S20G28    29.46F
BRANSON        PTSUNNY   59  48  67 SE10      29.57S

$$
MOZ032>034-039>042-045>050-055>058-069>072-202000-
...CENTRAL MISSOURI...

CITY           SKY/WX    TMP DP  RH WIND       PRES   REMARKS
COLUMBIA       CLOUDY    50  48  93 S12       29.54F
JEFFERSON CITY CLOUDY    51  48  89 SE8       29.55F
ROLLA          CLOUDY    51  49  92 S12       29.53F
SEDALIA        CLOUDY    56  48  74 S14       29.51F
WHITEMAN AFB   CLOUDY    52  52 100 S10       29.48F
WARRENSBURG    CLOUDY    54  46  76 SE12      29.48F
OSAGE BEACH    CLOUDY    54  48  80 S5        29.54F

$$
MOZ051-052-059>065-202000-
...EAST CENTRAL MISSOURI...

CITY           SKY/WX    TMP DP  RH WIND       PRES   REMARKS
ST LOUIS INTL  CLOUDY    53  47  79 SE10      29.59F
SPIRIT OF STL  CLOUDY    53  48  83 S7        29.58F
ST CHARLES     CLOUDY    52  49  89 S8        29.58F

$$
MOZ072>076-082>087-097>100-106>115-202000-
...SOUTH CENTRAL AND SOUTHEAST MISSOURI...

CITY           SKY/WX    TMP DP  RH WIND       PRES   REMARKS
CAPE GIRARDEAU CLOUDY    57  53  86 S10       29.64S
FARMINGTON     CLOUDY    53  50  89 S12       29.60F
POPLAR BLUFF   CLOUDY    58  56  93 S9        29.62F
WEST PLAINS    CLOUDY    56  50  80 S13G18    29.58F

$$




USA.gov is the U.S. government's official web portal to all federal, state and local government web resources and services.